"Pseudo-MPEC" for X82970

Created 2024 Sep 9 13:22:31 UT using Find_Orb

Click here for an explanation of pseudo-MPECs

 
 Astrometry: 
     X82970   C2024 09 04.64386122 17 02.99 -11 07 06.6 FixDup   16.3 RVNEOCPD29
     X82970 * C2024 09 04.64386122 17 02.99 -11 07 06.6 Duplicate16.3 RVNEOCPD29
     X82970   C2024 09 04.64410822 17 03.67 -11 07 20.7    ~954M 16.2 RVNEOCPD29
     X82970   C2024 09 04.64435522 17 04.36 -11 07 35.0    ~954M 16.3 RVNEOCPD29
     X82970  KB2024 09 05.57092223 11 35.731-26 43 12.52   ~95Eb 19.3 VZNEOCPQ06
     X82970  KB2024 09 05.57470123 11 50.130-26 47 05.92   ~95Eb 19.6 VZNEOCPQ06
     X82970  KB2024 09 05.57847823 12 04.527-26 50 59.66   ~95Eb 18.7 VZNEOCPQ06

Station data:
(D29) Purple Mountain Observatory, XuYi Station  (N32.734363 E118.463900)
   China.  Observers H. B. Zhao, B. Li, G. Zhaori, R. Q. Hong, L. F. Hu.
   Measurers H. B. Zhao, B. Li. H. Lu, G. Zhaori. 1.04-m f/1.8 Schmidt + CCD.
(Q06) Tarui Observatory, Tarui  (N35.394791 E136.495470)  Japan.

Orbital elements:  X82970
   Perihelion 2024 Sep 28.46268 +/- 0.394 TT = 11:06:15 (JD 2460581.96268)
Epoch 2024 Sep  5.0 TT = JDT 2460558.5   Earth MOID: 0.0103   Ma: 0.0572
M 344.57466230 +/- 0.42             (J2000 ecliptic)             AutoNEOCP
n   0.65744133 +/- 0.00859          Peri.  205.78682 +/- 0.40
a   1.30987959 +/- 0.0114           Node   162.12527 +/- 0.0027
e   0.2366452 +/- 0.00656           Incl.   11.28593 +/- 0.23
P   1.499/547.567d         H 26.76  G  0.15   U  9.5
q 0.99990281 +/- 0.000548    Q 1.61985638 +/- 0.0227
From 7 observations 2024 Sept. 4-5 (22.4 hr); mean residual 0".20
Residuals in arcseconds: 
240904 D29  .33-  .14+    240904 D29  .38+  .21-    240905 Q06  .00   .14-    
240904 D29  .33-  .14+    240905 Q06  .01-  .09-    
240904 D29  .05-  .07+    240905 Q06  .01+  .23+    

Ephemerides (geocentric):
Date (UTC) HH   RA             Dec           delta  r     elong  mag " sig PA
---- --------  ------------   ------------  ------ ------ -----  --- --------
2024 09 09 13  03 59 59.977   -53 06 18.16  .01912 1.0122 104.9 20.8  239  86
2024 09 09 14  04 01 49.455   -53 05 15.98  .01926 1.0121 104.6 20.8  240  85
2024 09 09 15  04 03 37.209   -53 04 08.54  .01941 1.0121 104.4 20.8  241  85
2024 09 09 16  04 05 23.268   -53 02 56.12  .01955 1.0120 104.1 20.9  242  85
2024 09 09 17  04 07 07.659   -53 01 38.96  .01970 1.0120 103.9 20.9  244  84
2024 09 09 18  04 08 50.408   -53 00 17.30  .01984 1.0119 103.6 20.9  245  84
2024 09 09 19  04 10 31.543   -52 58 51.39  .01999 1.0119 103.4 20.9  246  84
2024 09 09 20  04 12 11.092   -52 57 21.45  .02013 1.0118 103.2 20.9  247  83
2024 09 09 21  04 13 49.079   -52 55 47.69  .02028 1.0118 102.9 21.0  248  83
2024 09 09 22  04 15 25.534   -52 54 10.31  .02043 1.0117 102.7 21.0  249  83
2024 09 09 23  04 17 00.481   -52 52 29.52  .02058 1.0117 102.5 21.0  250  82
2024 09 10 00  04 18 33.947   -52 50 45.50  .02072 1.0116 102.3 21.0  251  82
2024 09 10 01  04 20 05.957   -52 48 58.43  .02087 1.0116 102.1 21.1  252  82
2024 09 10 02  04 21 36.539   -52 47 08.49  .02102 1.0115 101.8 21.1  253  81
2024 09 10 03  04 23 05.715   -52 45 15.85  .02117 1.0114 101.6 21.1  254  81
2024 09 10 04  04 24 33.513   -52 43 20.66  .02132 1.0114 101.4 21.1  255  81
2024 09 10 05  04 25 59.956   -52 41 23.07  .02147 1.0113 101.2 21.2  256  81
2024 09 10 06  04 27 25.070   -52 39 23.23  .02162 1.0113 101.0 21.2  257  80
2024 09 10 07  04 28 48.877   -52 37 21.28  .02177 1.0112 100.8 21.2  258  80
2024 09 10 08  04 30 11.401   -52 35 17.36  .02192 1.0112 100.6 21.2  259  80
2024 09 10 09  04 31 32.667   -52 33 11.58  .02207 1.0111 100.4 21.2  260  79
2024 09 10 10  04 32 52.697   -52 31 04.08  .02222 1.0111 100.3 21.3  261  79
2024 09 10 11  04 34 11.514   -52 28 54.97  .02237 1.0110 100.1 21.3  262  79
2024 09 10 12  04 35 29.139   -52 26 44.35  .02252 1.0110  99.9 21.3  262  79
2024 09 10 13  04 36 45.596   -52 24 32.35  .02267 1.0109  99.7 21.3  263  78
2024 09 10 14  04 38 00.905   -52 22 19.05  .02282 1.0109  99.5 21.3  264  78
2024 09 10 15  04 39 15.088   -52 20 04.56  .02297 1.0108  99.4 21.4  265  78
2024 09 10 16  04 40 28.165   -52 17 48.97  .02313 1.0108  99.2 21.4  266  78
2024 09 10 17  04 41 40.158   -52 15 32.37  .02328 1.0107  99.0 21.4  266  77
2024 09 10 18  04 42 51.086   -52 13 14.84  .02343 1.0107  98.8 21.4  267  77
2024 09 10 19  04 44 00.968   -52 10 56.46  .02358 1.0106  98.7 21.4  268  77
2024 09 10 20  04 45 09.825   -52 08 37.32  .02374 1.0106  98.5 21.5  269  77
2024 09 10 21  04 46 17.676   -52 06 17.48  .02389 1.0105  98.4 21.5  269  77
2024 09 10 22  04 47 24.538   -52 03 57.01  .02404 1.0105  98.2 21.5  270  76
2024 09 10 23  04 48 30.431   -52 01 35.99  .02420 1.0104  98.0 21.5  271  76
2024 09 11 00  04 49 35.372   -51 59 14.48  .02435 1.0104  97.9 21.5  271  76
2024 09 11 01  04 50 39.379   -51 56 52.53  .02451 1.0103  97.7 21.6  272  76
2024 09 11 02  04 51 42.470   -51 54 30.21  .02466 1.0103  97.6 21.6  273  75
2024 09 11 03  04 52 44.660   -51 52 07.58  .02481 1.0102  97.4 21.6  273  75
2024 09 11 04  04 53 45.968   -51 49 44.67  .02497 1.0102  97.3 21.6  274  75
2024 09 11 05  04 54 46.409   -51 47 21.56  .02512 1.0101  97.1 21.6  275  75
2024 09 11 06  04 55 45.999   -51 44 58.28  .02528 1.0101  97.0 21.6  275  75
2024 09 11 07  04 56 44.754   -51 42 34.87  .02543 1.0100  96.9 21.7  276  74
2024 09 11 08  04 57 42.689   -51 40 11.39  .02559 1.0100  96.7 21.7  276  74
2024 09 11 09  04 58 39.819   -51 37 47.88  .02575 1.0099  96.6 21.7  277  74
2024 09 11 10  04 59 36.159   -51 35 24.37  .02590 1.0099  96.5 21.7  278  74
2024 09 11 11  05 00 31.724   -51 33 00.90  .02606 1.0098  96.3 21.7  278  74
2024 09 11 12  05 01 26.527   -51 30 37.51  .02621 1.0098  96.2 21.8  279  74